Vorticity
4 5 5 5 6 5 6 4 4 6 4 3 2 3 4 4 5 6 5 7 9 10 11 9 8 4 1 2 2 2 1 -1 -2 -2 2 7 5 2 5 7 6 7 9 6 7 7 5 10 8 1 1 8 7 1 2 -0 -3 2 9 9 4 7 7 6 17 16 4 6 6 4 5 6 8 6 4 4 4 6 6 7 6 6 5 4 6 8 9 7 6 8 7 4 3 5 7 7 8
5 5 6 6 6 6 6 5 4 5 4 4 3 3 4 5 5 6 6 8 9 10 10 9 9 7 5 2 2 3 4 4 1 2 4 6 6 2 5 7 4 5 7 5 6 9 5 0 6 9 -2 1 8 6 5 0 -2 4 13 15 8 5 7 4 10 21 9 2 8 7 8 8 7 5 5 5 4 6 7 7 6 6 5 2 3 6 7 8 10 9 7 5 3 5 8 7 9
5 6 7 6 7 6 5 6 5 3 5 7 5 4 5 5 5 6 8 10 10 10 10 9 9 8 8 5 5 5 5 7 6 8 7 8 7 4 8 7 4 4 6 7 6 8 9 -3 -4 8 1 -3 3 6 7 2 1 9 16 16 12 5 8 4 -5 17 17 3 11 10 8 9 6 6 6 4 4 7 7 7 6 6 7 5 5 6 6 6 10 8 7 6 3 5 8 8 9
6 7 7 7 8 6 5 6 4 5 7 4 2 6 6 5 7 9 9 10 11 12 10 8 8 6 7 6 5 6 6 8 7 8 6 8 9 8 11 7 5 5 5 6 7 6 7 2 -1 5 1 -1 6 9 6 4 4 3 11 15 15 8 8 9 -2 6 11 7 10 7 8 6 4 6 5 2 5 7 7 8 6 6 8 7 7 8 6 6 8 7 8 6 3 5 7 9 10
7 8 8 8 7 6 6 5 4 6 4 -0 2 7 7 7 9 9 10 10 10 10 9 7 7 5 6 5 5 6 6 7 6 7 7 8 10 11 11 9 6 5 6 6 8 6 4 5 5 7 6 4 6 8 3 9 16 5 7 13 12 11 9 10 7 1 4 14 9 3 9 4 2 3 1 0 4 7 7 8 6 6 8 6 6 9 7 5 7 6 7 6 4 5 6 9 10
8 8 8 8 7 6 6 4 5 3 -0 0 4 7 7 8 9 9 10 10 9 7 7 6 6 5 5 5 5 6 6 7 7 7 8 8 9 9 10 10 9 7 8 9 9 7 8 9 9 12 11 7 4 5 5 8 10 -3 -3 7 7 10 10 9 12 3 1 16 10 4 8 4 2 -1 -3 -0 3 6 6 8 8 6 9 8 5 8 7 4 7 6 6 6 4 5 6 9 10
8 9 8 8 8 7 6 5 4 2 1 4 6 8 8 9 9 9 9 7 7 6 6 6 5 5 5 4 4 4 4 6 8 9 9 8 8 7 9 11 13 11 11 12 11 9 10 10 9 9 7 7 5 6 7 6 2 -5 -2 6 7 6 6 7 12 9 3 11 11 4 5 5 4 -2 -3 -0 1 5 6 8 9 7 9 9 5 5 6 5 7 5 4 5 4 5 6 10 11
8 8 8 8 8 7 7 6 4 2 5 8 8 9 9 10 9 9 8 6 6 6 7 6 6 6 4 3 4 4 4 6 8 9 8 8 8 8 9 11 15 14 12 12 8 7 6 5 5 4 7 4 3 7 4 3 7 10 10 8 10 8 4 4 10 15 7 9 12 3 4 6 3 1 -0 1 1 4 6 7 9 8 9 9 7 6 5 5 6 5 5 5 5 5 6 11 11
9 8 8 7 7 7 6 5 4 5 6 9 10 10 11 10 9 9 7 6 7 7 7 7 7 6 3 3 5 5 6 8 8 8 8 9 9 10 10 10 14 12 9 6 3 3 1 3 3 4 8 4 13 20 10 13 11 10 16 11 11 13 9 6 8 16 9 10 14 3 4 7 4 5 4 4 1 3 5 6 9 8 10 10 8 8 6 4 4 5 6 6 5 3 6 11 12
9 9 8 8 7 6 6 5 4 6 8 10 11 11 12 10 9 9 7 6 6 6 7 7 6 6 4 4 5 5 7 8 9 9 8 8 8 10 10 8 7 5 4 2 1 1 -0 3 2 4 8 10 21 5 -3 21 11 1 18 11 9 18 15 9 7 12 9 10 12 3 6 7 5 7 6 6 1 3 5 6 9 8 11 10 8 10 7 4 3 4 4 6 5 3 6 10 12
9 8 8 7 7 6 6 5 5 7 9 11 11 10 11 11 10 9 8 6 5 6 6 7 6 6 6 6 6 8 9 8 9 10 5 4 5 6 6 5 2 1 2 0 0 0 1 1 -2 4 9 9 11 -8 -6 15 2 3 22 8 2 18 18 10 7 10 9 9 9 5 10 6 3 8 4 5 3 1 5 7 9 8 11 10 8 12 8 4 3 3 3 5 5 3 5 9 11
8 7 7 7 7 6 5 6 8 10 10 11 11 12 13 12 12 11 8 6 6 7 7 7 7 6 6 6 8 8 7 8 9 7 3 1 3 3 2 2 1 0 0 -0 1 1 1 2 -1 2 5 3 4 11 21 16 4 11 18 3 -3 13 18 11 5 8 10 9 6 3 15 10 -0 8 3 1 3 -1 5 7 7 9 13 10 8 11 8 4 4 4 3 3 4 3 4 7 9
7 7 7 6 7 7 8 8 10 13 11 12 13 13 14 13 12 11 9 8 7 8 7 7 7 7 7 7 7 6 4 6 6 5 4 2 3 3 2 2 2 1 1 0 0 1 1 2 2 -3 -2 -0 -5 -2 3 -4 -2 4 6 3 4 13 15 12 6 7 11 10 6 1 15 17 1 7 5 -1 2 -1 3 6 6 10 15 10 7 11 8 4 3 4 4 2 3 4 4 5 6
7 7 7 7 9 10 10 11 13 13 11 13 13 13 13 12 11 11 11 10 9 9 8 8 8 7 7 6 6 5 4 4 4 4 3 4 4 3 3 3 3 2 1 1 0 1 1 1 2 2 2 5 2 -4 -8 -9 -3 4 7 9 10 10 9 13 9 4 9 11 8 1 7 14 4 4 4 1 2 0 2 5 6 9 14 11 7 10 8 5 4 4 5 3 2 3 4 5 4
8 9 9 9 10 10 10 12 14 12 11 13 11 10 10 10 10 10 11 9 10 9 7 7 7 7 6 4 4 3 3 3 3 4 4 3 3 3 3 3 2 3 2 3 2 2 4 4 4 6 9 8 9 9 6 6 6 6 9 9 9 9 7 12 12 7 8 9 10 5 3 13 14 7 2 2 3 0 0 5 6 7 14 12 6 10 9 5 4 4 5 3 2 3 2 4 4
12 12 11 12 12 12 11 12 12 10 11 10 8 8 7 7 8 8 8 7 7 7 6 6 5 5 5 4 4 4 5 6 7 7 8 7 7 6 6 6 6 6 6 6 7 8 9 11 10 11 13 10 7 7 7 9 9 8 8 10 10 10 11 11 14 13 10 8 10 8 4 13 18 8 2 5 6 3 1 3 5 6 13 13 6 9 10 6 4 4 5 4 2 3 1 3 3
13 13 12 14 13 11 11 10 8 7 8 7 5 5 4 5 5 5 6 4 5 5 6 6 5 4 5 5 6 8 10 12 12 12 12 12 12 12 11 11 10 9 9 9 9 11 11 11 11 11 11 9 6 6 6 7 9 10 9 9 10 11 14 13 13 14 13 9 8 10 6 9 12 1 -1 5 7 7 3 1 3 6 12 14 7 7 11 6 4 4 5 4 3 3 2 3 3
13 14 13 13 11 7 8 7 4 4 5 4 3 2 2 2 3 3 3 3 4 5 6 7 7 6 7 8 9 10 10 9 8 8 9 9 9 9 9 9 9 8 8 9 8 8 9 8 7 7 8 6 5 5 6 6 6 9 9 9 12 13 14 14 14 14 14 10 7 10 6 8 15 6 1 3 5 7 7 2 1 5 10 14 9 5 11 8 4 5 4 5 3 3 2 3 4
11 11 11 8 6 5 5 4 3 4 3 3 3 4 4 3 4 4 4 5 6 7 8 8 7 8 7 8 8 8 6 5 5 5 5 5 5 5 6 6 6 7 7 8 8 7 8 7 7 6 6 5 4 5 5 6 4 4 6 7 11 13 12 12 16 19 15 11 9 9 4 4 13 11 6 5 5 7 9 5 0 2 8 15 12 4 8 10 5 4 4 4 4 3 3 3 3
8 6 5 5 3 3 4 4 4 5 5 6 7 6 7 8 7 6 6 8 9 8 7 7 6 6 5 6 6 5 5 5 5 5 5 4 5 5 4 5 5 6 7 7 7 8 8 7 7 7 7 6 6 6 5 5 4 3 3 6 8 10 11 9 17 30 22 9 7 7 4 3 6 7 7 9 7 5 7 8 2 -0 6 12 15 7 4 10 7 4 4 4 4 4 3 4 3
6 4 2 3 4 3 4 4 5 6 7 8 10 10 9 9 8 8 8 7 7 6 5 5 5 4 4 4 4 4 4 4 4 4 5 5 5 5 4 4 5 5 6 7 8 8 7 7 7 8 8 7 6 6 6 5 5 5 4 5 7 8 11 8 16 39 32 10 7 8 5 3 4 4 7 9 8 6 5 7 3 -2 4 8 13 13 5 6 9 5 4 4 4 4 4 3 3
6 6 5 5 5 5 6 6 6 8 9 9 9 10 10 10 8 7 5 4 4 5 4 3 2 2 2 3 3 4 4 4 4 4 4 4 5 6 5 4 4 4 5 6 8 7 6 6 6 7 7 8 7 6 6 7 6 7 7 6 8 7 9 7 14 36 30 8 6 11 8 3 1 3 6 5 5 9 6 5 5 -0 2 5 8 15 10 4 8 8 4 4 5 4 4 4 3
6 7 7 6 6 6 7 8 7 7 8 8 7 7 8 7 5 4 3 1 2 3 3 3 3 3 2 3 4 4 5 4 4 4 4 4 4 4 4 4 3 3 4 6 6 6 6 6 6 6 6 7 7 6 6 7 7 7 9 8 8 6 6 8 13 24 20 7 4 8 11 8 3 2 2 2 1 6 8 5 4 0 0 4 4 10 14 9 5 8 7 3 4 4 3 4 4
5 6 6 6 6 6 6 7 7 7 6 6 5 5 4 4 3 2 2 2 2 2 2 3 3 3 3 4 5 4 5 4 4 4 4 4 3 3 3 4 4 3 3 3 4 4 5 6 7 6 5 6 6 6 6 7 7 6 9 9 8 8 6 6 9 12 12 9 8 7 10 10 7 6 2 1 -1 -1 6 8 5 1 -1 2 3 5 13 16 8 5 8 6 3 4 4 4 4
6 5 6 5 5 5 5 5 6 6 6 5 4 3 3 3 2 1 2 3 3 2 3 3 3 4 5 5 5 6 6 6 5 4 4 4 3 4 4 4 4 4 3 2 2 2 4 5 5 6 5 5 6 6 5 6 6 5 8 8 8 9 8 7 6 5 7 9 11 10 12 11 6 9 7 3 0 -3 0 6 7 4 -1 -1 2 2 7 16 16 8 6 8 6 4 4 4 4
6 6 7 7 6 7 7 6 5 5 5 5 3 3 2 2 2 1 1 2 2 3 3 3 4 4 5 5 5 5 6 6 6 5 5 5 5 5 5 5 4 5 5 4 4 3 3 3 3 5 5 5 6 6 6 5 5 5 6 7 7 8 8 10 9 5 5 7 8 10 16 16 7 3 9 11 5 -1 -0 3 6 7 3 -0 -0 2 3 9 17 16 9 5 7 6 3 4 4
6 6 6 6 6 6 7 6 6 6 5 5 4 3 2 2 2 2 2 2 3 4 4 4 4 5 5 5 5 6 7 7 7 6 6 5 5 5 5 5 5 5 6 5 5 5 4 4 3 4 5 6 6 6 7 6 6 5 5 5 6 7 6 7 7 5 5 5 5 7 11 19 17 6 4 13 9 2 3 1 3 7 6 2 -0 0 1 2 8 17 17 9 5 7 6 4 4
5 5 5 5 6 6 6 6 6 6 6 6 5 4 4 3 3 3 3 3 4 4 4 5 5 5 5 5 7 8 8 8 8 7 7 7 6 6 6 6 6 6 6 6 6 7 6 6 6 5 4 5 5 5 6 6 6 5 4 5 5 6 7 6 4 3 4 4 5 6 7 12 21 18 9 10 11 7 5 2 0 4 6 4 2 0 0 1 1 8 17 17 9 6 7 6 5
6 6 6 5 6 6 6 6 6 6 6 6 5 5 4 4 4 4 4 4 4 5 5 5 5 5 5 6 7 7 7 7 8 7 7 7 7 7 7 7 8 8 8 8 8 8 9 8 8 8 6 5 5 5 4 4 5 5 4 5 5 4 5 7 7 6 5 4 4 6 9 7 11 17 14 11 14 13 7 4 3 1 3 5 4 1 -0 -0 -1 1 7 15 17 9 7 8 7
6 6 6 7 7 7 7 7 7 7 6 6 6 5 5 5 5 5 5 6 5 5 6 6 6 6 6 7 8 8 8 7 7 7 7 6 6 6 6 7 7 8 9 10 10 9 9 9 8 8 8 7 6 6 6 5 4 5 5 4 5 5 4 6 7 7 7 5 5 4 6 6 4 8 12 12 17 20 14 8 5 3 1 2 5 2 -1 -1 -1 1 1 6 16 16 10 8 8
7 8 7 7 7 7 8 8 7 8 8 8 7 7 7 7 7 7 6 6 6 6 6 6 6 6 7 8 8 8 8 7 7 7 6 6 6 6 7 8 9 9 10 10 12 12 11 10 9 8 7 8 8 8 7 7 6 5 5 5 5 5 4 5 6 7 7 6 6 5 2 2 2 4 8 9 10 16 21 16 8 7 5 1 4 4 -0 -1 -2 -0 1 -0 6 14 16 11 8
10 10 9 9 9 7 8 9 8 8 8 8 8 7 7 7 7 7 7 5 6 7 6 7 7 7 8 8 8 8 8 8 8 7 8 7 8 9 10 11 11 11 12 13 15 15 15 15 14 13 11 10 10 10 10 9 10 8 7 6 6 6 5 5 6 7 8 7 6 6 5 3 2 2 4 6 6 5 14 25 22 15 13 6 1 3 3 0 -1 -1 1 0 -0 5 12 15 12
9 9 8 8 8 8 8 7 7 8 7 7 7 5 6 7 5 5 7 6 7 8 8 8 8 8 8 8 8 8 9 9 9 9 10 10 11 12 11 11 11 11 11 11 12 12 13 13 13 14 14 14 13 12 12 12 12 12 12 11 9 9 9 7 7 7 8 9 8 6 6 6 5 6 4 5 8 6 5 20 32 22 14 11 3 0 3 2 0 -1 -1 0 -0 0 4 10 14
5 4 5 6 4 5 8 6 5 7 6 5 5 4 6 8 5 5 8 7 7 8 8 8 8 8 7 8 9 9 10 10 10 10 10 11 11 10 9 9 9 10 11 10 10 10 10 11 11 11 11 11 11 10 11 11 11 11 11 13 13 12 12 12 10 8 8 9 10 9 7 7 6 7 8 5 5 11 9 9 22 23 13 12 8 2 1 2 1 -0 -0 -0 0 1 1 2 9
5 5 5 7 5 5 7 7 6 6 7 7 7 6 6 8 7 6 8 8 6 6 8 9 8 8 8 10 12 12 12 11 10 9 9 9 9 9 8 9 9 11 12 12 12 11 11 12 12 12 12 11 10 10 9 10 10 9 9 9 11 11 11 12 12 11 9 9 10 9 9 8 8 6 8 8 5 9 12 5 11 20 17 15 13 6 2 2 1 -2 -2 -1 1 2 1 0 2
9 9 7 9 9 9 11 11 9 8 8 8 8 7 6 7 8 7 8 7 5 6 8 8 8 9 11 14 14 12 10 9 8 8 9 9 8 9 9 10 10 10 11 12 12 12 11 10 10 11 12 12 12 11 10 10 10 10 10 9 9 9 10 10 12 12 10 10 9 9 9 8 8 8 6 7 7 7 8 7 8 9 12 16 15 10 6 3 0 -3 -2 0 1 3 3 1 -1
7 7 7 7 6 8 10 8 9 9 8 8 8 7 6 7 8 7 8 6 5 8 10 11 12 13 14 13 10 9 8 8 9 9 9 9 9 9 10 11 11 10 10 9 10 10 10 9 9 9 9 10 11 11 11 10 9 9 9 9 9 9 10 10 10 11 11 11 10 9 10 8 7 8 9 7 7 7 6 7 10 8 8 10 11 15 16 14 10 1 -2 2 1 2 5 4 1
4 5 5 6 5 7 10 7 8 9 7 9 8 6 7 7 7 9 9 7 8 11 13 14 13 11 9 9 8 8 9 9 9 9 9 10 10 10 10 10 10 9 8 7 8 8 8 8 7 7 7 7 7 9 10 10 9 8 8 8 9 9 10 10 10 10 11 11 11 11 10 11 9 7 8 8 7 8 7 5 7 9 9 6 5 10 12 18 26 17 3 1 1 0 4 6 4
5 6 6 8 7 8 9 8 9 9 7 10 9 7 10 10 9 10 11 11 12 13 12 10 8 6 7 8 8 9 9 10 10 9 10 10 10 10 9 8 7 7 7 6 6 6 6 7 7 7 7 6 6 5 6 8 8 8 8 8 8 9 8 9 9 9 10 11 11 12 11 11 12 10 8 8 8 7 8 8 6 4 6 8 8 7 1 2 16 25 19 9 0 -2 1 5 6
6 7 6 8 8 8 9 9 10 10 10 11 11 12 14 12 12 12 12 13 12 10 8 6 6 7 7 8 9 10 10 10 10 9 9 9 9 8 7 7 6 6 6 6 6 6 6 6 6 7 6 6 6 6 5 6 6 7 8 8 8 9 9 9 9 9 9 10 10 10 11 11 11 12 10 9 9 8 7 7 7 4 3 6 7 6 2 -4 -1 12 28 26 7 -1 0 2 5
6 7 8 9 9 9 10 11 11 13 13 13 13 15 14 12 11 11 10 9 8 8 7 7 8 8 9 10 11 11 10 10 9 8 8 7 8 8 8 8 7 7 7 6 6 6 6 7 7 7 8 8 8 8 8 7 6 6 6 7 7 8 9 9 9 10 9 9 9 9 10 11 10 11 12 11 10 10 8 6 7 6 4 3 2 1 2 3 0 -0 17 34 20 6 8 4 2
10 9 11 12 13 14 14 15 15 14 13 11 11 11 10 9 9 8 9 7 6 6 7 8 9 9 9 10 11 10 10 9 8 8 8 8 8 8 8 8 7 8 7 7 7 7 7 8 8 8 8 8 8 8 8 8 7 6 6 6 6 7 8 9 9 10 10 9 9 9 9 9 10 10 10 11 11 12 12 9 6 6 5 5 2 1 2 3 4 -2 2 25 25 7 14 15 2
16 15 16 15 15 14 13 13 12 11 9 9 9 6 7 9 9 6 7 9 8 7 8 9 9 8 8 9 9 10 10 9 9 9 8 8 8 7 7 7 7 7 8 8 8 8 8 8 8 9 8 8 8 7 7 7 7 6 7 6 7 7 7 9 10 10 11 11 11 10 10 9 9 9 9 10 11 11 13 13 11 8 5 5 4 3 4 1 4 4 -1 13 22 5 7 20 9
16 17 16 14 13 12 12 11 9 7 7 9 8 5 5 8 9 8 6 7 9 8 8 8 8 7 7 8 8 8 8 8 9 9 8 8 8 9 8 8 8 7 7 8 8 8 8 8 7 7 8 7 7 6 6 6 6 6 7 7 7 7 7 8 9 10 10 11 12 12 11 10 9 9 9 9 9 9 11 12 13 13 8 6 6 3 4 3 1 5 3 4 16 8 2 22 18
12 13 12 10 9 8 8 8 8 7 6 10 11 7 6 8 8 8 7 7 8 9 9 9 10 10 9 9 9 9 9 9 8 8 8 10 10 11 10 9 8 8 8 7 7 8 7 7 7 7 7 6 6 7 6 5 6 6 6 7 6 6 7 7 7 8 9 9 11 11 12 12 11 10 9 9 9 9 8 9 11 14 14 10 9 6 4 5 1 1 5 3 7 7 2 26 37
8 8 7 7 7 7 8 8 8 8 6 7 9 6 5 9 11 10 9 9 11 11 11 11 11 11 12 12 12 11 10 10 10 9 9 10 10 10 9 9 8 8 7 7 7 7 7 7 7 7 7 7 7 7 6 6 6 6 7 7 7 7 7 7 7 7 8 8 9 10 11 11 11 12 11 10 10 9 8 9 9 10 14 13 12 11 6 6 4 -1 3 4 4 8 3 20 46
6 6 5 5 4 4 5 5 7 7 7 9 11 10 7 7 10 12 11 12 12 12 12 12 11 10 10 10 9 9 9 9 9 9 8 8 7 7 7 7 8 7 7 7 7 7 7 7 7 7 7 7 7 6 6 6 6 6 7 7 7 8 8 8 8 8 8 8 8 9 10 10 11 11 11 11 11 11 10 9 9 9 12 14 13 14 11 8 7 1 2 4 0 8 7 3 24
4 4 5 4 5 7 4 4 6 6 10 12 9 9 9 9 10 12 12 12 11 11 12 13 12 11 9 9 8 8 8 9 9 8 7 7 7 7 7 7 7 8 8 8 8 7 7 7 7 7 6 5 5 6 6 7 7 7 7 8 8 7 8 8 8 9 9 9 8 8 9 9 11 11 11 12 11 12 13 11 11 9 9 13 13 15 15 12 11 6 3 4 -1 4 10 1 -0
4 4 4 2 9 15 7 2 3 1 2 4 3 6 7 7 8 10 10 10 9 9 10 11 10 10 9 9 9 9 9 9 8 8 8 8 8 7 8 8 8 8 7 7 7 6 6 6 6 5 5 5 5 6 7 7 8 9 8 9 9 9 9 9 8 9 9 10 10 8 9 8 9 10 10 12 11 11 13 13 13 12 10 11 11 13 16 16 16 12 6 5 2 1 6 6 -4
3 4 5 3 5 3 -0 7 19 22 15 3 -2 1 2 2 3 4 7 8 7 7 8 9 10 9 9 9 8 7 7 7 7 7 8 7 8 8 8 8 7 6 6 5 5 5 5 4 5 5 5 5 7 7 8 9 8 9 9 9 10 10 10 9 9 10 9 10 10 9 9 9 8 10 10 11 12 11 11 11 12 13 13 12 11 11 12 15 18 18 14 8 3 2 2 5 3
5 5 7 6 -1 -4 1 10 11 10 7 1 -3 -3 -1 2 4 5 6 6 6 8 8 7 7 8 9 10 10 10 9 8 8 8 9 8 8 8 6 5 5 5 4 4 4 4 5 5 5 6 6 7 8 9 9 10 10 10 10 11 12 11 10 10 10 11 11 10 11 11 10 10 9 10 10 10 12 12 12 12 10 11 11 12 13 12 10 11 15 19 20 16 7 4 4 2 5
4 2 3 1 1 5 7 -1 -12 -14 -10 -2 5 4 1 3 4 4 6 7 9 10 9 7 6 6 7 7 8 9 9 8 8 7 6 6 5 4 4 4 4 5 4 4 5 5 5 6 6 6 7 7 8 10 10 10 11 11 12 12 13 12 10 9 9 10 12 12 12 12 11 12 11 10 11 10 10 11 11 12 12 11 10 9 10 12 13 10 10 14 19 22 17 9 6 3 2
2 2 4 6 10 9 1 -5 -1 1 -4 -4 2 3 3 6 6 4 5 10 14 13 11 10 8 8 7 6 7 7 7 6 6 6 5 5 5 5 5 5 5 5 6 5 5 5 5 6 7 7 8 9 9 9 10 11 12 12 13 13 14 14 12 10 9 9 11 13 14 14 13 14 13 12 12 11 11 10 10 11 11 11 11 11 9 8 12 12 10 11 13 20 23 17 11 8 3
2 5 7 8 7 4 5 9 9 6 3 4 6 6 5 7 10 10 8 6 7 10 12 12 11 11 9 8 10 10 9 8 7 6 7 6 6 5 4 5 6 6 6 6 5 6 6 6 7 8 8 9 9 10 10 12 13 12 13 14 13 14 13 11 10 9 10 12 13 14 14 15 15 15 14 13 13 12 11 10 10 11 12 12 12 9 8 11 12 11 10 13 20 23 19 14 10
8 6 5 3 -0 0 6 8 6 9 14 12 8 6 5 7 11 10 9 7 3 3 7 11 13 13 9 9 10 9 9 9 9 9 9 9 9 9 9 9 10 7 6 8 7 6 7 8 8 9 9 9 9 11 11 11 12 12 12 13 12 11 11 10 9 9 9 9 11 12 13 13 13 14 14 14 14 13 13 12 10 11 12 12 14 13 10 9 10 13 12 10 13 20 22 19 16
14 11 9 6 5 4 2 -1 -1 0 -1 -2 2 7 10 12 7 -3 -0 11 12 6 4 9 14 13 9 9 8 9 10 9 10 10 9 10 10 10 12 12 10 8 8 8 7 8 8 9 10 10 10 10 9 9 10 10 11 11 11 11 11 10 9 9 8 8 8 8 9 10 10 11 10 10 11 11 12 12 12 12 11 10 11 12 13 14 14 11 9 10 12 13 12 13 19 21 19
3 7 10 10 13 17 16 11 6 2 0 4 4 1 2 7 8 5 7 11 8 7 10 10 11 11 12 13 10 10 12 9 9 11 11 12 10 9 12 13 10 8 9 9 8 9 10 10 11 10 9 9 9 8 8 9 10 11 12 12 13 12 11 10 9 8 8 8 8 8 9 10 11 10 8 7 8 9 9 10 11 10 9 9 10 11 14 14 12 10 9 12 13 11 13 17 20
8 8 6 2 2 3 1 0 6 16 18 11 2 0 4 7 6 10 17 16 11 11 12 8 6 5 9 15 14 10 10 11 11 13 15 15 12 13 14 10 7 8 11 12 12 11 11 11 10 9 8 7 8 8 8 8 9 9 10 11 11 12 12 11 11 9 9 9 8 8 8 8 10 12 11 9 7 6 7 7 7 9 9 8 9 10 10 12 14 13 10 9 11 12 12 12 16
Height
5844 5845 5846 5847 5848 5849 5849 5850 5850 5851 5852 5851 5852 5851 5851 5851 5852 5852 5852 5853 5853 5853 5853 5854 5854 5854 5854 5855 5855 5855 5856 5857 5858 5858 5858 5858 5858 5857 5857 5858 5859 5859 5860 5859 5857 5856 5856 5857 5857 5857 5858 5859 5860 5861 5861 5861 5861 5862 5862 5861 5861 5861 5862 5864 5865 5866 5867 5867 5867 5868 5869 5870 5871 5871 5872 5872 5872 5872 5872 5872 5872 5872 5873 5874 5874 5874 5875 5875 5876 5876 5877 5877 5877 5877 5877 5877 5878
5842 5843 5844 5844 5845 5846 5847 5848 5848 5849 5849 5849 5849 5848 5848 5849 5849 5850 5850 5850 5850 5851 5851 5851 5851 5852 5852 5852 5853 5854 5855 5855 5856 5857 5857 5857 5856 5856 5856 5857 5857 5857 5858 5857 5856 5855 5855 5856 5856 5856 5857 5858 5859 5860 5860 5860 5860 5860 5860 5859 5859 5860 5860 5861 5863 5864 5865 5865 5866 5867 5868 5869 5870 5871 5871 5871 5872 5872 5871 5872 5872 5872 5873 5873 5874 5874 5874 5875 5875 5876 5877 5877 5878 5877 5877 5877 5878
5840 5840 5841 5842 5843 5844 5845 5846 5846 5847 5847 5847 5846 5846 5846 5846 5846 5847 5848 5848 5848 5849 5849 5849 5849 5850 5850 5851 5851 5852 5853 5854 5854 5855 5855 5855 5855 5855 5855 5855 5855 5856 5856 5855 5855 5854 5854 5855 5855 5855 5856 5856 5857 5858 5859 5859 5859 5858 5858 5857 5857 5858 5858 5859 5860 5862 5863 5863 5864 5865 5867 5868 5869 5869 5870 5870 5871 5871 5871 5871 5871 5872 5873 5873 5873 5874 5874 5875 5875 5876 5877 5877 5878 5877 5877 5877 5878
5837 5838 5839 5840 5841 5842 5842 5843 5844 5845 5845 5845 5844 5844 5844 5844 5844 5845 5846 5846 5846 5847 5847 5847 5847 5848 5848 5849 5850 5851 5852 5853 5853 5853 5853 5853 5854 5854 5854 5854 5854 5854 5854 5854 5853 5853 5854 5854 5853 5853 5853 5855 5856 5857 5858 5858 5858 5857 5857 5856 5856 5856 5856 5857 5858 5859 5860 5861 5863 5864 5865 5867 5867 5868 5869 5869 5870 5870 5870 5870 5871 5872 5872 5873 5873 5874 5874 5875 5875 5876 5877 5877 5878 5878 5877 5877 5878
5835 5836 5837 5838 5838 5839 5840 5841 5842 5842 5842 5842 5842 5842 5842 5842 5843 5843 5843 5844 5844 5845 5845 5845 5845 5846 5847 5847 5849 5850 5850 5851 5851 5851 5851 5852 5852 5852 5853 5853 5853 5852 5852 5852 5851 5852 5853 5852 5851 5851 5851 5853 5854 5854 5855 5855 5855 5855 5855 5855 5855 5854 5854 5855 5855 5856 5857 5859 5861 5863 5864 5865 5866 5867 5867 5868 5869 5869 5869 5870 5870 5871 5872 5873 5873 5874 5874 5875 5875 5876 5876 5877 5877 5878 5877 5877 5878
5832 5833 5834 5835 5836 5837 5838 5838 5839 5839 5839 5840 5840 5840 5840 5840 5840 5841 5841 5842 5842 5842 5843 5843 5843 5844 5845 5846 5847 5848 5849 5849 5850 5850 5850 5850 5851 5851 5851 5851 5851 5851 5851 5851 5850 5850 5851 5850 5850 5849 5849 5850 5850 5851 5851 5851 5852 5852 5852 5853 5853 5853 5853 5854 5855 5856 5857 5858 5860 5862 5863 5864 5865 5866 5866 5867 5868 5868 5869 5869 5870 5870 5871 5872 5873 5874 5874 5875 5875 5876 5876 5876 5877 5877 5877 5878 5878
5830 5831 5832 5833 5834 5835 5835 5836 5837 5836 5836 5838 5838 5838 5838 5838 5838 5838 5839 5839 5840 5840 5841 5841 5841 5842 5843 5844 5845 5846 5847 5847 5848 5848 5848 5848 5849 5849 5849 5849 5850 5849 5849 5849 5849 5849 5849 5849 5848 5848 5847 5846 5847 5847 5847 5847 5848 5849 5850 5851 5852 5852 5852 5853 5854 5856 5857 5859 5860 5861 5863 5863 5864 5865 5866 5866 5867 5867 5868 5869 5869 5870 5871 5871 5872 5873 5874 5874 5875 5875 5876 5876 5877 5877 5878 5878 5878
5828 5829 5830 5831 5831 5832 5833 5834 5834 5833 5834 5836 5835 5836 5836 5836 5836 5836 5837 5837 5838 5838 5839 5839 5839 5840 5841 5842 5843 5844 5845 5846 5846 5846 5846 5846 5847 5847 5847 5847 5848 5848 5848 5848 5848 5848 5848 5848 5847 5846 5843 5842 5844 5844 5844 5845 5846 5848 5848 5849 5850 5850 5851 5852 5853 5855 5857 5858 5860 5861 5862 5863 5864 5865 5865 5866 5866 5867 5868 5868 5868 5869 5870 5871 5872 5873 5873 5874 5874 5875 5875 5876 5876 5877 5878 5879 5879
5825 5826 5827 5828 5829 5830 5831 5831 5831 5831 5832 5833 5833 5833 5833 5834 5834 5834 5835 5835 5836 5836 5836 5837 5838 5838 5839 5841 5842 5843 5843 5844 5844 5844 5844 5844 5845 5845 5845 5846 5847 5847 5847 5847 5847 5847 5847 5846 5845 5844 5840 5839 5841 5842 5842 5843 5845 5846 5847 5848 5849 5849 5850 5850 5852 5854 5855 5857 5858 5859 5860 5861 5863 5864 5865 5865 5866 5866 5867 5867 5867 5868 5869 5870 5871 5872 5872 5873 5874 5874 5875 5875 5876 5876 5878 5879 5879
5823 5824 5825 5826 5827 5828 5828 5828 5828 5829 5830 5831 5831 5831 5831 5831 5832 5832 5832 5833 5834 5834 5834 5835 5836 5836 5838 5839 5840 5841 5842 5842 5842 5842 5842 5843 5843 5844 5844 5845 5845 5846 5846 5846 5846 5846 5845 5844 5843 5842 5838 5836 5837 5838 5838 5839 5841 5843 5845 5846 5848 5848 5848 5849 5850 5852 5853 5855 5856 5857 5858 5859 5861 5862 5863 5864 5865 5865 5865 5866 5866 5867 5868 5870 5870 5871 5872 5873 5873 5873 5874 5875 5875 5876 5877 5879 5880
5820 5822 5823 5824 5825 5825 5826 5826 5826 5826 5827 5828 5828 5828 5829 5829 5829 5830 5830 5831 5832 5832 5833 5833 5834 5835 5836 5837 5838 5839 5840 5840 5840 5840 5841 5841 5842 5842 5843 5843 5844 5844 5845 5845 5845 5845 5844 5843 5841 5839 5836 5835 5834 5834 5834 5836 5838 5842 5843 5844 5846 5846 5846 5847 5848 5850 5851 5853 5855 5856 5857 5858 5859 5861 5862 5862 5863 5864 5864 5865 5865 5866 5868 5869 5870 5870 5871 5872 5872 5873 5874 5874 5875 5876 5877 5879 5880
5818 5819 5820 5821 5822 5823 5823 5823 5823 5824 5825 5826 5826 5826 5826 5827 5827 5828 5829 5829 5830 5830 5831 5831 5832 5833 5834 5835 5836 5837 5838 5838 5838 5838 5839 5839 5840 5841 5841 5842 5842 5843 5843 5843 5843 5843 5842 5841 5839 5837 5835 5834 5832 5830 5831 5834 5838 5840 5841 5842 5844 5845 5845 5846 5847 5848 5850 5852 5854 5855 5856 5857 5858 5859 5860 5861 5862 5863 5863 5864 5865 5866 5867 5868 5869 5869 5870 5871 5872 5872 5873 5874 5875 5876 5877 5878 5879
5815 5817 5818 5819 5820 5820 5821 5821 5821 5822 5822 5823 5824 5824 5824 5825 5825 5826 5827 5827 5828 5829 5829 5829 5830 5832 5832 5833 5834 5835 5836 5836 5836 5837 5837 5838 5838 5839 5840 5840 5841 5841 5841 5841 5841 5841 5840 5838 5837 5835 5834 5833 5832 5830 5831 5835 5838 5839 5840 5841 5842 5843 5843 5844 5845 5847 5848 5850 5852 5854 5855 5857 5857 5858 5859 5860 5861 5862 5862 5863 5864 5865 5866 5867 5868 5868 5869 5870 5871 5872 5873 5874 5874 5875 5876 5877 5879
5813 5814 5815 5816 5817 5818 5818 5819 5820 5820 5820 5821 5822 5822 5822 5822 5823 5824 5825 5826 5826 5827 5827 5828 5829 5830 5831 5832 5833 5833 5834 5834 5834 5835 5835 5835 5836 5837 5837 5838 5839 5839 5839 5839 5838 5838 5837 5836 5834 5834 5832 5832 5831 5831 5832 5834 5838 5839 5840 5840 5841 5842 5842 5843 5844 5845 5846 5848 5850 5852 5854 5856 5856 5857 5858 5859 5860 5861 5862 5862 5862 5864 5865 5866 5867 5867 5868 5869 5870 5871 5872 5873 5874 5875 5876 5877 5878
5811 5812 5813 5814 5815 5816 5816 5817 5818 5818 5818 5819 5820 5820 5820 5820 5821 5822 5823 5824 5825 5825 5826 5826 5827 5828 5829 5830 5831 5831 5832 5832 5832 5832 5833 5833 5833 5834 5835 5836 5836 5837 5837 5837 5836 5835 5835 5834 5833 5832 5831 5830 5829 5830 5831 5833 5836 5838 5838 5839 5840 5840 5840 5841 5842 5842 5844 5845 5847 5849 5852 5854 5855 5856 5857 5858 5859 5860 5861 5861 5862 5862 5864 5865 5866 5866 5866 5868 5869 5870 5872 5873 5873 5874 5875 5876 5877
5809 5810 5810 5812 5813 5813 5814 5815 5816 5815 5816 5817 5817 5818 5818 5819 5820 5821 5822 5822 5823 5824 5824 5825 5826 5826 5827 5828 5829 5829 5830 5830 5830 5830 5830 5831 5831 5832 5832 5833 5834 5835 5835 5834 5834 5833 5832 5831 5831 5831 5831 5830 5829 5828 5829 5831 5834 5835 5836 5837 5837 5838 5838 5838 5839 5840 5841 5843 5845 5847 5850 5851 5853 5854 5855 5856 5858 5859 5860 5860 5861 5861 5862 5863 5864 5865 5865 5866 5868 5869 5871 5872 5873 5873 5874 5875 5876
5806 5807 5808 5809 5810 5811 5812 5812 5813 5813 5814 5815 5815 5816 5817 5817 5818 5819 5820 5820 5821 5822 5823 5823 5824 5824 5825 5826 5827 5827 5827 5828 5828 5828 5828 5828 5829 5829 5830 5831 5832 5832 5833 5833 5832 5831 5831 5830 5829 5828 5829 5830 5829 5829 5829 5830 5832 5833 5834 5834 5835 5835 5835 5836 5837 5838 5839 5841 5843 5845 5847 5850 5851 5853 5854 5855 5857 5858 5859 5859 5859 5860 5861 5862 5862 5863 5864 5865 5866 5868 5870 5871 5872 5872 5873 5874 5875
5804 5805 5806 5807 5808 5808 5809 5810 5810 5811 5812 5813 5814 5814 5815 5815 5816 5817 5818 5818 5819 5820 5821 5821 5822 5823 5823 5824 5825 5825 5825 5825 5826 5826 5826 5826 5827 5827 5828 5829 5830 5830 5831 5831 5831 5830 5829 5828 5827 5827 5827 5827 5828 5828 5828 5829 5830 5831 5831 5832 5832 5832 5832 5833 5834 5836 5837 5839 5841 5843 5846 5848 5850 5851 5852 5854 5856 5856 5857 5858 5858 5859 5860 5860 5861 5862 5863 5864 5865 5866 5868 5869 5871 5871 5872 5873 5874
5802 5803 5804 5805 5805 5806 5807 5808 5809 5809 5810 5811 5812 5812 5813 5813 5814 5815 5815 5816 5818 5818 5819 5820 5820 5821 5822 5822 5822 5823 5823 5823 5823 5824 5824 5824 5825 5825 5826 5827 5828 5828 5829 5829 5829 5828 5828 5827 5826 5826 5825 5825 5826 5827 5827 5828 5829 5829 5830 5830 5830 5831 5831 5831 5831 5833 5835 5837 5839 5841 5843 5846 5848 5849 5851 5852 5854 5855 5856 5856 5857 5857 5858 5859 5860 5860 5861 5862 5864 5865 5867 5868 5869 5870 5871 5872 5873
5800 5801 5801 5802 5803 5804 5805 5806 5807 5808 5808 5809 5810 5810 5811 5811 5812 5813 5813 5815 5816 5817 5817 5818 5818 5819 5819 5820 5820 5820 5821 5821 5821 5821 5822 5822 5823 5823 5824 5824 5825 5826 5826 5827 5827 5827 5826 5826 5825 5825 5824 5824 5824 5825 5825 5826 5827 5828 5828 5829 5829 5829 5829 5829 5829 5829 5831 5834 5837 5839 5841 5844 5845 5847 5849 5850 5852 5854 5855 5855 5855 5856 5857 5858 5859 5860 5860 5861 5862 5864 5866 5867 5868 5869 5870 5871 5872
5798 5799 5799 5800 5801 5802 5803 5804 5804 5805 5806 5807 5808 5808 5808 5809 5810 5811 5812 5814 5814 5814 5815 5816 5816 5817 5817 5818 5818 5818 5819 5819 5819 5819 5820 5820 5821 5821 5821 5822 5822 5823 5824 5824 5825 5824 5824 5824 5824 5823 5823 5823 5823 5823 5823 5824 5826 5826 5827 5827 5827 5828 5828 5827 5827 5826 5828 5832 5834 5836 5839 5841 5843 5845 5847 5849 5850 5851 5853 5853 5854 5855 5856 5856 5858 5859 5860 5860 5861 5862 5864 5866 5866 5868 5869 5870 5870
5796 5797 5797 5798 5799 5799 5800 5801 5802 5803 5804 5805 5806 5806 5807 5808 5809 5809 5811 5811 5811 5812 5813 5814 5814 5814 5815 5815 5816 5816 5816 5817 5817 5817 5817 5818 5818 5818 5819 5819 5820 5820 5821 5822 5822 5822 5822 5822 5822 5822 5821 5821 5822 5821 5821 5822 5823 5824 5825 5826 5826 5826 5826 5826 5825 5825 5827 5830 5832 5834 5837 5839 5841 5843 5845 5847 5848 5849 5851 5852 5853 5854 5854 5855 5856 5858 5859 5860 5860 5861 5862 5864 5865 5866 5867 5868 5869
5794 5795 5796 5796 5797 5797 5798 5799 5800 5801 5802 5803 5804 5804 5805 5806 5807 5808 5808 5808 5809 5810 5811 5811 5812 5812 5813 5813 5814 5814 5814 5814 5815 5815 5815 5815 5815 5815 5816 5816 5817 5818 5818 5819 5820 5820 5820 5820 5820 5820 5820 5820 5820 5820 5819 5820 5821 5821 5822 5824 5824 5824 5825 5825 5825 5825 5826 5828 5830 5832 5834 5836 5839 5841 5843 5845 5846 5847 5849 5850 5852 5852 5853 5854 5855 5856 5858 5859 5860 5860 5861 5862 5864 5865 5866 5867 5868
5792 5793 5794 5794 5795 5795 5796 5797 5798 5799 5800 5801 5802 5803 5804 5804 5805 5806 5806 5806 5807 5808 5809 5809 5810 5810 5811 5811 5811 5811 5812 5812 5812 5812 5812 5812 5812 5812 5813 5814 5815 5815 5816 5816 5817 5817 5817 5818 5818 5818 5817 5817 5817 5818 5818 5818 5818 5819 5820 5821 5822 5823 5823 5824 5825 5825 5826 5827 5828 5830 5832 5834 5836 5838 5840 5842 5844 5845 5846 5848 5850 5851 5852 5853 5853 5855 5856 5858 5859 5859 5860 5861 5862 5863 5864 5865 5866
5790 5791 5792 5792 5793 5793 5794 5795 5796 5797 5797 5798 5799 5800 5801 5802 5803 5803 5803 5804 5805 5806 5807 5807 5807 5808 5808 5809 5809 5809 5809 5810 5810 5810 5809 5809 5809 5809 5810 5811 5812 5813 5813 5814 5814 5814 5815 5815 5815 5815 5815 5815 5815 5815 5815 5815 5816 5817 5817 5818 5819 5821 5822 5822 5823 5824 5825 5826 5827 5828 5829 5831 5833 5835 5837 5839 5841 5843 5844 5846 5848 5850 5851 5851 5852 5853 5854 5856 5857 5858 5859 5859 5860 5861 5862 5863 5864
5788 5789 5790 5790 5790 5791 5792 5792 5793 5794 5795 5796 5797 5798 5799 5800 5800 5800 5801 5802 5803 5804 5804 5805 5805 5806 5806 5806 5806 5806 5806 5807 5807 5807 5806 5806 5806 5806 5806 5807 5808 5810 5810 5811 5811 5811 5811 5812 5812 5812 5812 5812 5812 5812 5813 5813 5814 5815 5816 5816 5816 5818 5819 5820 5821 5822 5823 5824 5825 5826 5827 5829 5830 5832 5833 5835 5837 5839 5841 5844 5846 5847 5848 5849 5850 5851 5853 5854 5856 5857 5858 5858 5858 5859 5860 5862 5863
5786 5787 5787 5788 5788 5788 5789 5790 5791 5792 5793 5794 5794 5795 5796 5797 5797 5797 5798 5800 5800 5801 5802 5802 5803 5803 5803 5803 5803 5803 5804 5804 5804 5804 5803 5802 5802 5802 5803 5804 5805 5806 5807 5807 5808 5808 5808 5809 5809 5809 5809 5810 5810 5810 5810 5811 5812 5812 5814 5814 5814 5815 5816 5818 5819 5820 5821 5822 5823 5824 5826 5827 5828 5829 5831 5832 5834 5835 5838 5841 5843 5844 5846 5847 5848 5849 5851 5852 5854 5855 5856 5857 5857 5857 5858 5859 5861
5784 5784 5785 5785 5785 5786 5786 5787 5788 5789 5790 5791 5792 5792 5793 5794 5794 5794 5796 5797 5797 5798 5798 5799 5799 5800 5800 5800 5800 5801 5801 5801 5801 5800 5800 5799 5798 5799 5800 5801 5802 5802 5803 5804 5804 5805 5805 5805 5806 5806 5806 5806 5807 5807 5807 5808 5809 5810 5811 5811 5811 5812 5813 5815 5816 5817 5818 5819 5820 5822 5823 5825 5826 5828 5829 5830 5831 5832 5835 5837 5839 5841 5843 5845 5846 5847 5848 5850 5851 5853 5854 5855 5856 5856 5856 5857 5859
5781 5781 5782 5782 5783 5783 5784 5785 5785 5786 5787 5789 5789 5789 5790 5790 5790 5791 5793 5793 5794 5795 5795 5796 5796 5796 5797 5797 5797 5797 5798 5797 5797 5797 5797 5796 5795 5795 5795 5797 5799 5799 5800 5801 5801 5801 5801 5802 5802 5803 5803 5803 5803 5804 5804 5805 5806 5807 5807 5808 5809 5809 5810 5811 5813 5814 5815 5817 5818 5819 5821 5822 5823 5825 5826 5827 5828 5830 5832 5834 5836 5838 5840 5842 5843 5845 5846 5847 5849 5850 5852 5853 5854 5855 5855 5855 5856
5778 5779 5779 5780 5780 5780 5781 5782 5783 5783 5784 5786 5786 5786 5786 5787 5787 5788 5789 5790 5790 5791 5791 5792 5793 5793 5794 5794 5794 5794 5794 5794 5793 5793 5793 5792 5791 5791 5791 5793 5795 5795 5796 5797 5797 5798 5798 5798 5798 5799 5799 5800 5800 5800 5801 5802 5803 5803 5804 5805 5806 5806 5807 5808 5809 5810 5812 5813 5815 5816 5818 5819 5820 5821 5823 5824 5825 5827 5829 5831 5832 5834 5836 5838 5840 5842 5844 5845 5846 5848 5849 5850 5852 5853 5854 5854 5854
5776 5777 5776 5778 5778 5777 5778 5780 5779 5780 5781 5783 5784 5783 5781 5782 5785 5785 5785 5786 5787 5787 5788 5789 5789 5790 5791 5791 5791 5791 5790 5790 5789 5789 5789 5788 5787 5787 5787 5789 5791 5791 5792 5793 5794 5794 5794 5794 5794 5795 5795 5796 5796 5797 5798 5798 5799 5800 5801 5801 5802 5803 5803 5804 5806 5807 5808 5809 5810 5812 5814 5816 5817 5818 5820 5821 5823 5824 5825 5826 5828 5830 5832 5834 5837 5839 5841 5842 5844 5845 5846 5848 5849 5850 5851 5852 5853
5774 5774 5774 5775 5775 5773 5775 5777 5776 5777 5778 5779 5781 5780 5777 5778 5782 5782 5782 5783 5783 5784 5784 5785 5786 5787 5787 5788 5788 5788 5787 5786 5786 5785 5785 5784 5783 5783 5784 5785 5787 5787 5788 5788 5789 5790 5790 5790 5790 5791 5791 5792 5793 5794 5794 5795 5796 5797 5798 5798 5798 5799 5800 5801 5802 5803 5805 5805 5807 5808 5809 5811 5813 5815 5817 5818 5820 5821 5822 5822 5823 5825 5828 5830 5833 5835 5837 5839 5841 5842 5843 5845 5846 5848 5849 5850 5851
5771 5772 5771 5773 5773 5770 5772 5773 5773 5774 5775 5776 5777 5777 5774 5774 5778 5778 5778 5779 5780 5780 5781 5782 5782 5783 5784 5784 5785 5784 5783 5782 5782 5781 5781 5780 5780 5780 5780 5781 5782 5784 5784 5785 5786 5786 5787 5787 5787 5788 5788 5789 5789 5790 5791 5791 5792 5793 5794 5795 5796 5796 5796 5797 5799 5800 5801 5802 5803 5804 5805 5807 5809 5811 5813 5814 5816 5817 5818 5818 5819 5821 5823 5826 5828 5831 5833 5835 5837 5839 5840 5842 5843 5845 5846 5847 5848
5768 5769 5768 5769 5770 5768 5768 5769 5770 5771 5771 5772 5773 5773 5772 5770 5773 5775 5774 5775 5776 5777 5777 5778 5779 5779 5780 5781 5781 5780 5778 5778 5778 5777 5777 5777 5777 5777 5776 5777 5779 5781 5781 5782 5783 5783 5783 5784 5784 5785 5785 5785 5786 5787 5787 5788 5788 5789 5790 5791 5792 5793 5793 5793 5794 5796 5797 5798 5799 5800 5801 5802 5805 5806 5808 5810 5812 5813 5814 5815 5816 5817 5819 5821 5824 5826 5829 5831 5834 5835 5837 5838 5839 5841 5843 5844 5845
5765 5766 5766 5766 5767 5766 5765 5764 5767 5768 5767 5768 5768 5769 5769 5767 5769 5771 5771 5771 5772 5773 5774 5774 5775 5775 5776 5777 5777 5775 5774 5774 5774 5773 5774 5775 5774 5774 5773 5774 5775 5777 5778 5778 5779 5779 5780 5780 5781 5781 5782 5782 5783 5783 5784 5785 5785 5786 5786 5787 5788 5789 5789 5789 5790 5791 5793 5794 5795 5797 5797 5799 5800 5802 5803 5805 5807 5808 5810 5812 5813 5814 5815 5817 5819 5822 5824 5827 5830 5832 5833 5834 5835 5837 5839 5841 5842
5762 5763 5763 5762 5763 5763 5761 5761 5764 5765 5764 5764 5764 5765 5766 5765 5765 5766 5766 5767 5768 5769 5769 5770 5771 5772 5772 5773 5772 5771 5771 5771 5771 5771 5772 5771 5771 5770 5770 5770 5772 5773 5774 5774 5775 5776 5776 5776 5777 5778 5778 5779 5780 5780 5781 5782 5782 5782 5783 5784 5784 5785 5785 5786 5786 5787 5788 5790 5791 5793 5794 5795 5796 5798 5799 5801 5802 5804 5807 5808 5809 5811 5811 5813 5816 5818 5820 5823 5826 5827 5828 5829 5830 5833 5835 5838 5839
5758 5759 5759 5759 5760 5759 5757 5759 5761 5761 5761 5760 5760 5762 5763 5763 5761 5761 5761 5762 5764 5765 5765 5766 5767 5767 5768 5769 5769 5768 5768 5768 5768 5768 5768 5768 5767 5767 5767 5767 5768 5769 5770 5771 5771 5772 5772 5773 5773 5774 5775 5775 5776 5777 5778 5778 5779 5779 5779 5780 5780 5781 5782 5782 5782 5783 5784 5785 5787 5789 5790 5791 5792 5794 5795 5796 5797 5800 5802 5803 5805 5806 5807 5809 5812 5814 5817 5819 5821 5822 5823 5824 5826 5828 5831 5833 5835
5755 5755 5756 5755 5756 5755 5754 5756 5756 5757 5757 5755 5756 5758 5759 5759 5757 5756 5756 5757 5760 5761 5762 5762 5762 5763 5764 5765 5765 5765 5765 5765 5765 5765 5764 5764 5763 5763 5763 5764 5764 5765 5766 5766 5767 5768 5768 5769 5770 5770 5771 5771 5772 5774 5775 5775 5775 5776 5776 5776 5777 5777 5778 5778 5779 5779 5780 5781 5783 5784 5786 5787 5788 5789 5791 5792 5793 5795 5797 5798 5800 5801 5802 5805 5807 5809 5812 5813 5816 5818 5819 5820 5822 5824 5826 5828 5831
5752 5751 5752 5751 5752 5752 5750 5751 5752 5753 5753 5751 5752 5754 5755 5754 5753 5753 5752 5753 5756 5758 5758 5758 5758 5759 5761 5761 5762 5761 5761 5762 5761 5761 5760 5760 5760 5760 5760 5760 5760 5761 5762 5762 5763 5764 5764 5765 5766 5767 5767 5767 5768 5769 5770 5771 5772 5772 5772 5773 5773 5773 5774 5774 5775 5776 5776 5777 5778 5780 5781 5782 5783 5784 5786 5787 5788 5790 5792 5793 5795 5796 5798 5800 5802 5805 5807 5808 5811 5814 5815 5815 5817 5820 5821 5823 5827
5748 5747 5748 5747 5748 5748 5746 5747 5749 5749 5749 5748 5748 5750 5750 5750 5749 5749 5750 5750 5752 5753 5753 5754 5754 5756 5757 5757 5758 5758 5758 5758 5757 5757 5757 5757 5757 5757 5757 5757 5757 5757 5758 5758 5759 5760 5761 5761 5762 5763 5763 5764 5764 5765 5766 5767 5767 5768 5768 5769 5769 5769 5770 5771 5771 5772 5772 5772 5774 5775 5777 5777 5778 5780 5781 5783 5784 5785 5787 5788 5790 5791 5793 5795 5798 5800 5802 5804 5805 5808 5809 5810 5812 5815 5816 5818 5822
5743 5744 5744 5743 5744 5745 5743 5744 5745 5745 5745 5745 5745 5746 5746 5746 5746 5746 5747 5748 5748 5749 5749 5749 5751 5752 5752 5753 5754 5754 5754 5754 5754 5753 5753 5754 5754 5754 5754 5754 5754 5754 5754 5755 5755 5756 5757 5758 5758 5759 5760 5760 5761 5761 5761 5762 5762 5763 5764 5764 5765 5765 5766 5767 5767 5768 5769 5769 5769 5770 5772 5773 5774 5775 5776 5778 5780 5781 5782 5784 5785 5787 5788 5790 5793 5795 5797 5799 5800 5801 5802 5804 5807 5810 5812 5813 5816
5739 5740 5741 5740 5740 5741 5740 5740 5741 5741 5741 5742 5742 5743 5742 5743 5743 5743 5744 5745 5745 5745 5745 5746 5747 5748 5748 5749 5749 5750 5750 5750 5750 5750 5750 5750 5751 5751 5751 5751 5751 5751 5751 5751 5752 5752 5753 5754 5755 5755 5756 5757 5757 5758 5758 5758 5757 5758 5758 5759 5759 5760 5760 5762 5763 5764 5764 5765 5765 5765 5766 5768 5769 5770 5771 5773 5775 5776 5778 5779 5780 5782 5783 5785 5788 5790 5792 5793 5795 5796 5797 5799 5802 5804 5806 5808 5810
5735 5736 5737 5737 5737 5737 5737 5738 5738 5738 5738 5739 5740 5740 5739 5740 5740 5740 5742 5742 5741 5742 5742 5743 5744 5744 5744 5745 5745 5746 5746 5747 5747 5747 5747 5747 5748 5748 5748 5748 5748 5747 5748 5748 5748 5749 5750 5750 5751 5752 5752 5753 5754 5754 5755 5754 5754 5754 5754 5754 5755 5755 5755 5756 5757 5758 5759 5760 5760 5761 5761 5762 5763 5765 5767 5768 5769 5771 5772 5774 5775 5777 5779 5780 5782 5784 5786 5788 5789 5791 5793 5795 5797 5799 5801 5803 5805
5732 5733 5734 5734 5734 5734 5735 5735 5735 5735 5735 5736 5736 5736 5738 5738 5737 5737 5739 5739 5738 5739 5739 5739 5740 5740 5741 5741 5742 5742 5743 5743 5743 5743 5744 5744 5744 5745 5745 5744 5744 5744 5744 5744 5745 5745 5746 5746 5747 5747 5748 5749 5749 5750 5750 5750 5750 5750 5750 5750 5750 5750 5750 5750 5751 5751 5753 5754 5755 5755 5756 5756 5757 5759 5761 5762 5764 5765 5766 5768 5770 5771 5773 5775 5777 5779 5781 5782 5784 5786 5788 5789 5791 5794 5796 5797 5799
5730 5731 5731 5731 5731 5732 5732 5732 5732 5732 5733 5732 5732 5733 5735 5735 5734 5734 5735 5736 5735 5736 5736 5736 5736 5736 5737 5737 5737 5738 5739 5739 5739 5739 5740 5740 5741 5741 5741 5741 5740 5740 5740 5740 5740 5741 5741 5742 5742 5743 5743 5744 5745 5746 5746 5746 5746 5745 5745 5745 5745 5746 5746 5746 5746 5746 5746 5747 5749 5750 5750 5751 5752 5753 5754 5756 5758 5759 5760 5762 5763 5765 5767 5769 5771 5773 5775 5777 5778 5780 5782 5784 5785 5788 5790 5791 5793
5728 5728 5728 5728 5728 5729 5729 5729 5729 5729 5730 5729 5728 5730 5731 5731 5731 5730 5730 5732 5732 5732 5733 5733 5733 5733 5733 5733 5734 5734 5734 5735 5735 5735 5736 5736 5737 5737 5737 5736 5736 5736 5736 5736 5736 5736 5736 5737 5737 5738 5739 5739 5740 5741 5741 5742 5742 5741 5741 5740 5740 5740 5740 5740 5741 5741 5741 5741 5742 5743 5744 5745 5746 5747 5748 5750 5752 5753 5754 5755 5757 5758 5760 5762 5764 5766 5769 5771 5772 5774 5776 5778 5779 5781 5783 5785 5787
5725 5726 5726 5726 5726 5726 5726 5727 5726 5726 5726 5726 5725 5726 5727 5728 5727 5726 5726 5728 5728 5728 5728 5728 5730 5730 5730 5730 5730 5730 5730 5731 5731 5731 5732 5732 5732 5732 5732 5732 5732 5732 5732 5732 5732 5732 5732 5732 5732 5733 5734 5734 5735 5735 5736 5737 5737 5736 5736 5735 5735 5735 5735 5735 5735 5735 5736 5736 5736 5736 5737 5739 5740 5741 5742 5743 5745 5747 5748 5750 5751 5752 5753 5755 5756 5759 5762 5764 5767 5768 5770 5771 5773 5775 5777 5780 5782
5723 5723 5723 5723 5723 5723 5723 5724 5724 5723 5723 5722 5722 5722 5723 5724 5724 5723 5723 5725 5724 5724 5724 5724 5725 5725 5726 5726 5726 5726 5727 5727 5727 5727 5727 5728 5728 5728 5728 5728 5728 5728 5728 5727 5727 5727 5727 5727 5728 5728 5729 5729 5730 5730 5731 5731 5731 5731 5731 5730 5730 5730 5729 5729 5729 5729 5730 5731 5731 5731 5731 5732 5733 5735 5736 5737 5738 5739 5742 5743 5744 5745 5747 5748 5749 5751 5754 5757 5760 5762 5763 5765 5767 5769 5772 5774 5776
5720 5720 5720 5721 5721 5720 5719 5720 5720 5720 5719 5718 5719 5719 5719 5720 5721 5720 5720 5721 5721 5721 5720 5720 5720 5721 5721 5722 5722 5722 5723 5723 5723 5723 5723 5723 5723 5724 5724 5724 5723 5723 5723 5723 5723 5723 5723 5723 5723 5723 5724 5725 5726 5726 5726 5726 5727 5726 5726 5725 5724 5724 5724 5724 5723 5723 5723 5724 5725 5725 5725 5726 5726 5728 5729 5731 5732 5733 5734 5736 5738 5739 5740 5742 5743 5744 5746 5749 5752 5755 5756 5759 5761 5763 5766 5768 5770
5717 5717 5717 5718 5719 5717 5716 5717 5717 5716 5714 5714 5715 5716 5715 5716 5718 5718 5717 5717 5718 5718 5717 5717 5717 5717 5717 5717 5718 5718 5718 5719 5719 5719 5719 5719 5719 5720 5720 5720 5719 5719 5719 5719 5719 5718 5718 5718 5718 5718 5719 5720 5721 5721 5721 5721 5722 5721 5721 5720 5719 5719 5719 5718 5718 5717 5717 5717 5718 5719 5719 5720 5720 5721 5722 5723 5725 5726 5727 5729 5731 5733 5734 5735 5737 5738 5740 5741 5744 5747 5749 5752 5754 5757 5759 5762 5764
5713 5714 5714 5714 5715 5715 5714 5715 5715 5713 5710 5708 5710 5711 5712 5713 5713 5714 5714 5713 5713 5714 5713 5713 5713 5713 5713 5714 5714 5714 5714 5714 5714 5714 5714 5714 5715 5715 5715 5715 5715 5715 5715 5715 5714 5714 5714 5713 5714 5714 5714 5715 5716 5716 5716 5716 5716 5716 5716 5715 5715 5714 5713 5713 5712 5712 5712 5712 5712 5713 5713 5714 5714 5715 5716 5717 5718 5719 5721 5722 5724 5726 5727 5729 5730 5732 5733 5735 5736 5739 5742 5744 5747 5750 5752 5756 5758
5710 5710 5710 5710 5712 5712 5710 5709 5710 5710 5707 5703 5703 5705 5708 5709 5708 5709 5710 5709 5709 5709 5709 5709 5708 5709 5710 5710 5710 5710 5710 5710 5710 5710 5710 5710 5710 5710 5710 5711 5711 5711 5711 5711 5710 5710 5709 5709 5709 5709 5709 5710 5710 5710 5710 5710 5710 5710 5710 5710 5710 5710 5709 5708 5707 5707 5707 5706 5706 5707 5707 5707 5708 5709 5710 5710 5711 5712 5714 5715 5717 5718 5720 5722 5724 5725 5727 5729 5730 5731 5734 5737 5740 5742 5745 5749 5751
5707 5707 5707 5706 5707 5707 5705 5703 5704 5704 5701 5699 5698 5699 5703 5704 5702 5704 5706 5706 5705 5705 5705 5705 5704 5704 5705 5706 5707 5707 5707 5707 5707 5706 5706 5706 5706 5706 5706 5706 5706 5706 5706 5706 5706 5705 5705 5704 5704 5704 5704 5704 5704 5704 5704 5704 5704 5704 5704 5704 5704 5704 5704 5703 5702 5702 5701 5701 5701 5701 5701 5701 5702 5702 5703 5704 5705 5706 5707 5708 5710 5711 5713 5715 5717 5719 5720 5722 5723 5725 5727 5730 5732 5735 5738 5741 5744
5703 5703 5703 5702 5702 5702 5700 5699 5698 5697 5694 5694 5694 5693 5696 5698 5697 5698 5701 5702 5702 5700 5700 5700 5699 5699 5699 5700 5702 5702 5702 5702 5702 5702 5702 5702 5701 5701 5701 5701 5700 5700 5701 5701 5701 5700 5700 5700 5700 5699 5699 5699 5699 5698 5698 5698 5698 5698 5698 5699 5699 5698 5698 5697 5697 5696 5696 5696 5696 5695 5695 5695 5696 5696 5697 5697 5698 5699 5700 5702 5703 5704 5705 5707 5709 5711 5713 5715 5717 5718 5720 5723 5725 5727 5730 5733 5737
5699 5698 5697 5697 5697 5697 5696 5694 5693 5692 5689 5689 5689 5687 5689 5692 5693 5694 5694 5696 5697 5696 5695 5695 5694 5694 5694 5695 5696 5697 5697 5697 5697 5697 5697 5697 5696 5696 5696 5695 5695 5695 5695 5695 5695 5695 5695 5694 5695 5694 5694 5693 5693 5693 5693 5693 5693 5692 5692 5693 5693 5692 5692 5692 5691 5691 5691 5690 5690 5690 5690 5690 5690 5690 5690 5691 5692 5693 5694 5695 5696 5698 5699 5700 5701 5703 5706 5708 5710 5712 5714 5716 5718 5720 5722 5725 5728
5693 5692 5692 5692 5692 5692 5692 5689 5689 5688 5685 5684 5684 5682 5683 5685 5688 5691 5691 5690 5691 5691 5691 5691 5690 5689 5689 5690 5690 5691 5692 5692 5692 5692 5691 5691 5691 5691 5691 5690 5689 5689 5689 5689 5689 5689 5689 5689 5689 5689 5688 5688 5688 5688 5688 5688 5687 5687 5687 5687 5687 5686 5686 5686 5685 5685 5685 5685 5684 5684 5684 5685 5685 5684 5684 5685 5685 5686 5686 5688 5689 5691 5692 5693 5694 5696 5698 5700 5703 5705 5707 5709 5711 5713 5715 5718 5720
5687 5687 5687 5686 5686 5686 5685 5683 5684 5684 5680 5680 5679 5677 5679 5682 5682 5684 5687 5687 5686 5686 5686 5686 5685 5684 5683 5684 5685 5685 5686 5686 5687 5686 5686 5686 5685 5686 5686 5684 5683 5683 5683 5683 5683 5683 5683 5683 5683 5683 5683 5682 5683 5683 5683 5682 5681 5681 5681 5681 5680 5680 5680 5679 5679 5679 5679 5679 5678 5678 5678 5679 5679 5679 5678 5678 5679 5679 5679 5680 5682 5684 5685 5687 5688 5689 5690 5692 5694 5697 5700 5702 5704 5705 5708 5710 5712
5683 5682 5682 5682 5682 5680 5677 5675 5678 5678 5675 5675 5673 5670 5674 5679 5677 5677 5681 5683 5683 5682 5681 5681 5680 5679 5678 5678 5679 5680 5680 5680 5681 5681 5681 5681 5680 5680 5680 5679 5678 5678 5677 5677 5678 5678 5678 5678 5677 5677 5677 5676 5676 5677 5677 5676 5675 5675 5675 5675 5674 5674 5673 5673 5672 5672 5672 5672 5672 5672 5672 5672 5672 5673 5672 5672 5672 5672 5672 5673 5674 5676 5678 5679 5681 5683 5684 5685 5687 5689 5692 5694 5697 5698 5700 5702 5704